• In Netherlands
  • List of Countries
  • For 7 days
  • Water Temperature
  • Satellite Maps
  • Weather Map
  • Weather Widgets
  • user-avatar
    Login

    Hourly Weather Krynicy

    Today, 15 August, Wednesday

    Time Temperature Precipitation Wind Pressure Humidity
    00:00 +18°C° 0.3 mm 3 mps 738 mmHg 92%
    01:00 +18°C° 0.3 mm 3 mps 737 mmHg 93%
    02:00 +18°C° 0 mm 4 mps 737 mmHg 93%
    03:00 +18°C° 0.1 mm 4 mps 737 mmHg 93%
    04:00 +18°C° 0.1 mm 4 mps 737 mmHg 94%
    05:00 +18°C° 0.1 mm 3 mps 737 mmHg 94%
    06:00 +19°C° 0 mm 4 mps 737 mmHg 92%
    07:00 +20°C° 0 mm 4 mps 737 mmHg 89%
    08:00 +21°C° 0 mm 4 mps 737 mmHg 86%
    09:00 +21°C° 0 mm 4 mps 738 mmHg 81%
    10:00 +22°C° 0 mm 4 mps 738 mmHg 76%
    11:00 +22°C° 0 mm 4 mps 738 mmHg 71%
    12:00 +23°C° 0 mm 4 mps 738 mmHg 68%
    13:00 +25°C° 0 mm 5 mps 739 mmHg 64%
    14:00 +26°C° 0 mm 5 mps 739 mmHg 61%
    15:00 +25°C° 0.1 mm 4 mps 739 mmHg 63%
    16:00 +25°C° 0.1 mm 4 mps 739 mmHg 66%
    17:00 +25°C° 0.1 mm 3 mps 739 mmHg 68%
    18:00 +22°C° 0 mm 3 mps 739 mmHg 73%
    19:00 +21°C° 0 mm 3 mps 739 mmHg 78%
    20:00 +19°C° 0 mm 2 mps 739 mmHg 83%
    21:00 +18°C° 0 mm 2 mps 740 mmHg 86%
    22:00 +18°C° 0 mm 2 mps 740 mmHg 89%
    23:00 +17°C° 0 mm 2 mps 740 mmHg 92%

    Tomorrow, 16 August, Thursday

    Time Temperature Precipitation Wind Pressure Humidity
    00:00 +17°C° 0 mm 2 mps 740 mmHg 93%
    01:00 +16°C° 0 mm 2 mps 740 mmHg 94%
    02:00 +16°C° 0 mm 2 mps 740 mmHg 96%
    03:00 +16°C° 0 mm 2 mps 740 mmHg 96%
    04:00 +16°C° 0 mm 2 mps 741 mmHg 97%
    05:00 +15°C° 0 mm 2 mps 741 mmHg 97%
    06:00 +17°C° 0 mm 2 mps 741 mmHg 94%
    07:00 +18°C° 0 mm 2 mps 741 mmHg 90%
    08:00 +19°C° 0 mm 2 mps 742 mmHg 86%
    09:00 +20°C° 0 mm 2 mps 742 mmHg 84%
    10:00 +20°C° 0 mm 2 mps 742 mmHg 81%
    11:00 +21°C° 0 mm 2 mps 743 mmHg 78%
    12:00 +22°C° 0.1 mm 3 mps 743 mmHg 75%
    13:00 +22°C° 0.1 mm 3 mps 743 mmHg 73%
    14:00 +24°C° 0.1 mm 3 mps 743 mmHg 70%
    15:00 +24°C° 0 mm 3 mps 743 mmHg 71%
    16:00 +24°C° 0 mm 3 mps 743 mmHg 71%
    17:00 +22°C° 0 mm 3 mps 743 mmHg 72%
    18:00 +21°C° 0 mm 3 mps 743 mmHg 78%
    19:00 +19°C° 0 mm 2 mps 743 mmHg 84%
    20:00 +18°C° 0 mm 2 mps 744 mmHg 90%
    21:00 +17°C° 0 mm 2 mps 744 mmHg 91%
    22:00 +16°C° 0 mm 2 mps 744 mmHg 93%
    23:00 +16°C° 0 mm 2 mps 744 mmHg 94%

    Day after tomorrow, 17 August, Friday

    Time Temperature Precipitation Wind Pressure Humidity
    00:00 +15°C° 0 mm 2 mps 744 mmHg 95%
    01:00 +15°C° 0 mm 2 mps 744 mmHg 95%
    02:00 +15°C° 0 mm 2 mps 744 mmHg 96%
    03:00 +15°C° 0 mm 2 mps 744 mmHg 96%
    04:00 +14°C° 0 mm 2 mps 744 mmHg 96%
    05:00 +14°C° 0 mm 2 mps 744 mmHg 97%
    06:00 +16°C° 0 mm 2 mps 744 mmHg 93%
    07:00 +17°C° 0 mm 2 mps 745 mmHg 88%
    08:00 +19°C° 0 mm 2 mps 745 mmHg 84%
    09:00 +20°C° 0 mm 2 mps 745 mmHg 79%
    10:00 +23°C° 0 mm 2 mps 745 mmHg 74%
    11:00 +24°C° 0 mm 3 mps 745 mmHg 68%
    12:00 +25°C° 0.1 mm 3 mps 745 mmHg 66%
    13:00 +25°C° 0.1 mm 3 mps 745 mmHg 64%
    14:00 +26°C° 0.1 mm 3 mps 745 mmHg 62%
    15:00 +26°C° 0.1 mm 2 mps 744 mmHg 64%
    16:00 +26°C° 0.1 mm 2 mps 744 mmHg 66%
    17:00 +25°C° 0.1 mm 2 mps 744 mmHg 68%
    18:00 +24°C° 0.1 mm 2 mps 744 mmHg 75%
    19:00 +21°C° 0.1 mm 2 mps 744 mmHg 82%
    20:00 +19°C° 0.1 mm 2 mps 744 mmHg 90%
    21:00 +19°C° 0 mm 2 mps 744 mmHg 91%
    22:00 +18°C° 0 mm 2 mps 744 mmHg 92%
    23:00 +18°C° 0 mm 2 mps 744 mmHg 93%

    18 August, Saturday

    Time Temperature Precipitation Wind Pressure Humidity
    00:00 +17°C° 0 mm 2 mps 744 mmHg 94%
    01:00 +17°C° 0 mm 2 mps 744 mmHg 95%
    02:00 +16°C° 0 mm 2 mps 744 mmHg 95%
    03:00 +16°C° 0 mm 2 mps 744 mmHg 95%
    04:00 +16°C° 0 mm 2 mps 744 mmHg 96%
    05:00 +16°C° 0 mm 2 mps 744 mmHg 96%
    06:00 +17°C° 0.1 mm 3 mps 744 mmHg 93%
    07:00 +18°C° 0.1 mm 3 mps 744 mmHg 89%
    08:00 +19°C° 0.1 mm 3 mps 744 mmHg 86%
    09:00 +21°C° 0.1 mm 3 mps 744 mmHg 81%
    10:00 +22°C° 0.1 mm 4 mps 744 mmHg 77%
    11:00 +25°C° 0.1 mm 4 mps 744 mmHg 72%
    12:00 +25°C° 0.6 mm 4 mps 744 mmHg 72%
    13:00 +25°C° 0.6 mm 4 mps 744 mmHg 73%
    14:00 +25°C° 0.6 mm 4 mps 743 mmHg 73%
    15:00 +23°C° 1.1 mm 4 mps 743 mmHg 77%
    16:00 +24°C° 1.1 mm 3 mps 743 mmHg 81%
    17:00 +22°C° 1.1 mm 3 mps 743 mmHg 85%
    18:00 +21°C° 0.6 mm 3 mps 743 mmHg 87%
    19:00 +20°C° 0.6 mm 3 mps 743 mmHg 90%
    20:00 +19°C° 0.6 mm 3 mps 743 mmHg 93%
    21:00 +19°C° 0.1 mm 2 mps 743 mmHg 94%
    22:00 +19°C° 0.1 mm 2 mps 743 mmHg 95%
    23:00 +18°C° 0.1 mm 2 mps 743 mmHg 96%

    19 August, Sunday

    Time Temperature Precipitation Wind Pressure Humidity
    00:00 +18°C° 0 mm 2 mps 742 mmHg 96%
    01:00 +18°C° 0 mm 2 mps 742 mmHg 97%
    02:00 +17°C° 0 mm 2 mps 742 mmHg 97%
    03:00 +17°C° 0 mm 2 mps 742 mmHg 97%
    04:00 +17°C° 0 mm 2 mps 742 mmHg 97%
    05:00 +16°C° 0 mm 2 mps 742 mmHg 97%
    06:00 +17°C° 0 mm 2 mps 742 mmHg 94%
    07:00 +18°C° 0 mm 2 mps 742 mmHg 91%
    08:00 +20°C° 0 mm 3 mps 743 mmHg 87%
    09:00 +21°C° 0 mm 3 mps 743 mmHg 79%
    10:00 +24°C° 0 mm 3 mps 743 mmHg 71%
    11:00 +25°C° 0 mm 3 mps 743 mmHg 64%
    12:00 +26°C° 0.1 mm 3 mps 742 mmHg 62%
    13:00 +26°C° 0.1 mm 3 mps 742 mmHg 60%
    14:00 +27°C° 0.1 mm 3 mps 742 mmHg 58%
    15:00 +26°C° 1.1 mm 3 mps 742 mmHg 65%
    16:00 +24°C° 1.1 mm 3 mps 742 mmHg 72%
    17:00 +22°C° 1.1 mm 4 mps 742 mmHg 80%
    18:00 +21°C° 0.3 mm 3 mps 742 mmHg 83%
    19:00 +19°C° 0.3 mm 3 mps 742 mmHg 87%
    20:00 +18°C° 0.3 mm 2 mps 743 mmHg 90%
    21:00 +17°C° 0 mm 2 mps 743 mmHg 91%
    22:00 +16°C° 0 mm 2 mps 743 mmHg 93%
    23:00 +16°C° 0 mm 2 mps 743 mmHg 94%

    20 August, Monday

    Time Temperature Precipitation Wind Pressure Humidity
    00:00 +16°C° 0 mm 2 mps 743 mmHg 95%
    01:00 +15°C° 0 mm 2 mps 743 mmHg 95%
    02:00 +15°C° 0 mm 2 mps 743 mmHg 96%
    03:00 +14°C° 0 mm 2 mps 743 mmHg 96%
    04:00 +14°C° 0 mm 2 mps 744 mmHg 96%
    05:00 +13°C° 0 mm 2 mps 744 mmHg 96%
    06:00 +14°C° 0 mm 2 mps 744 mmHg 92%
    07:00 +16°C° 0 mm 2 mps 744 mmHg 87%
    08:00 +17°C° 0 mm 2 mps 745 mmHg 82%
    09:00 +18°C° 0 mm 2 mps 745 mmHg 75%
    10:00 +19°C° 0 mm 2 mps 745 mmHg 68%
    11:00 +21°C° 0 mm 2 mps 745 mmHg 60%
    12:00 +21°C° 0 mm 2 mps 745 mmHg 58%
    13:00 +21°C° 0 mm 2 mps 745 mmHg 57%
    14:00 +23°C° 0 mm 2 mps 745 mmHg 55%
    15:00 +21°C° 0 mm 2 mps 744 mmHg 58%
    16:00 +21°C° 0 mm 2 mps 744 mmHg 60%
    17:00 +21°C° 0 mm 2 mps 744 mmHg 63%
    18:00 +20°C° 0 mm 1 mps 744 mmHg 67%
    19:00 +19°C° 0 mm 1 mps 744 mmHg 71%
    20:00 +16°C° 0 mm 1 mps 744 mmHg 75%
    21:00 +15°C° 0 mm 1 mps 744 mmHg 79%
    22:00 +15°C° 0 mm 1 mps 744 mmHg 82%
    23:00 +14°C° 0 mm 1 mps 744 mmHg 85%
    Show more